Location: *
(35.2348°S, 91.3916°E)
Time: 23:26:21
(UTC+00:00)

CZ-4C R/B - Pass Details

Date: 23 October 2019
Orbit: 652 x 1350 km, 63.4° (Epoch: 13 November)

Event Time Altitude Azimuth Distance (km) Brightness Sun altitude
Rises 13:33:49 0° 318° (NW) 4,347 6.1 -15.7°
Reaches altitude 10° 13:36:50 10° 314° (NW) 3,347 5.5 -16.3°
Maximum altitude 13:44:54 58° 236° (SW) 1,416 3.6 -17.7°
Drops below altitude 10° 13:52:04 10° 157° (SSE) 2,975 5.1 -19.0°
Sets 13:54:37 0° 152° (SSE) 3,837 5.7 -19.4°
